Regional Weather Roundup
Issued by NWS

Home | Current Version | Previous Version | Graphics & Text | Print | Product List | Glossary On
Versions: 1 2 3 4 5 6 7 8 9 10 11 12 13 14 15 16 17 18 19 20 21 22 23 24 25 26 27 28 29 30 31 32 33 34 35 36 37 38 39 40 41 42 43 44 45 46 47 48 49 50
000
ASUS43 KLSX 010759
RWRMO

WEATHER SUMMARY FOR MISSOURI
NATIONAL WEATHER SERVICE SPRINGFIELD MO
300 AM CDT SAT AUG 01 2015

NOTE: "FAIR" INDICATES FEW OR NO CLOUDS BELOW 12,000 FEET WITH NO
       SIGNIFICANT WEATHER AND/OR OBSTRUCTIONS TO VISIBILITY.
       CURRENT SKY AND/OR WEATHER CONDITIONS ARE NOT AVAILABLE FOR
       CHILLICOTHE AND FARMINGTON.

MOZ001>031-035>038-043-044-053-054-010900-
...NORTHERN AND WESTERN MISSOURI...

CITY           SKY/WX    TMP DP  RH WIND       PRES   REMARKS
KANSAS CTY INT CLEAR     72  68  87 SE6       30.05F
KANSAS C DTWN  CLEAR     78  69  73 CALM      30.04F
LEE`S SUMMIT   CLEAR     75  64  68 S5        30.07F
ST JOSEPH      CLEAR     73  70  90 CALM      30.05S
CHILLICOTHE      N/A     73  66  78 N3        30.06S
KIRKSVILLE     PTCLDY    72  66  81 E3        30.06F

$$
MOZ066>068-077>081-088>096-101>105-010900-
...SOUTHWEST MISSOURI...

CITY           SKY/WX    TMP DP  RH WIND       PRES   REMARKS
SPRINGFIELD    CLEAR     66  60  81 CALM      30.08F
JOPLIN         CLEAR     63  58  83 CALM      30.08F

$$
MOZ032>034-039>042-045>050-055>058-069>072-010900-
...CENTRAL MISSOURI...

CITY           SKY/WX    TMP DP  RH WIND       PRES   REMARKS
COLUMBIA       PTCLDY    72  68  87 CALM      30.06F
JEFFERSON CITY CLEAR     69  67  93 CALM      30.04F
ROLLA          CLEAR     67  64  90 W3        30.06F
SEDALIA        PTCLDY    71  66  84 CALM      30.07F
WARRENSBURG    CLEAR     70  64  83 S5        30.05F
OSAGE BEACH    CLEAR     66  63  88 CALM      30.07F

$$
MOZ051-052-059>065-010900-
...EAST CENTRAL MISSOURI...

CITY           SKY/WX    TMP DP  RH WIND       PRES   REMARKS
ST LOUIS INTL  PTCLDY    76  68  76 SW5       30.04S
SPIRIT OF STL  CLEAR     69  68  96 CALM      30.03S
ST CHARLES     PTCLDY    72  70  93 N6        30.02F

$$
MOZ072>076-082>087-097>100-106>115-010900-
...SOUTH CENTRAL AND SOUTHEAST MISSOURI...

CITY           SKY/WX    TMP DP  RH WIND       PRES   REMARKS
CAPE GIRARDEAU CLEAR     70  69  97 CALM      30.02F
FARMINGTON     CLEAR     64  63  94 CALM      30.10S
POPLAR BLUFF   CLEAR     70  68  93 CALM      30.02F
WEST PLAINS    CLEAR     68  63  84 CALM      30.10F

$$


USA.gov is the U.S. government's official web portal to all federal, state and local government web resources and services.